MV Moseldijk — PBWK — position and weather

sailwx.info

Track history (hours):
 
Tides and Currents Weather Stations Pressure Air Temp Water Temp Dewpoint Dewpoint Depression Visibility Wind Speed Wind Dir Waves Ship Positions

MV Moseldijk

Last reported at 2014-Jul-24 19:33 UTC. Time now 2014-Jul-24 20:06 UTC.
Position N 50°00' W 001°49'.

Length 90 m; draft 6.5 m.

Type: Cargo ship. MMSI: 246644000.

Date/timePositionNaut miles runAvg speedWind from/ knotsBaromVisibWave heightAir tempDewpointWater temp
2014-Jul-24 19:33N 50°00' W 001°49'1413.7
2014-Jul-24 18:33N 49°57' W 002°10'191 9.4
2014-Jul-23 22:11N 47°46' W 005°43'610.5
2014-Jul-23 21:34N 47°40' W 005°42'1010.3
2014-Jul-23 20:33N 47°30' W 005°43'4110.3
2014-Jul-23 16:34N 46°49' W 005°42'18410.2
2014-Jul-22 22:31N 43°44' W 005°40'1010.0
2014-Jul-22 21:33N 43°34' W 005°40'1 0.1
2014-Jul-22 01:33N 43°34' W 005°42'0 0.0
2014-Jul-21 23:27N 43°34' W 005°42'0 0.0
2014-Jul-21 13:33N 43°34' W 005°42'0 0.0
2014-Jul-21 07:30N 43°34' W 005°42'0 0.0
2014-Jul-21 06:26N 43°34' W 005°42'0 0.0
2014-Jul-21 05:33N 43°34' W 005°42'0 0.0
2014-Jul-20 23:22N 43°34' W 005°42'7 8.3
2014-Jul-20 22:33N 43°36' W 005°33'110 3.4
2014-Jul-19 14:31N 43°21' W 003°02'0 0.0
2014-Jul-19 13:31N 43°21' W 003°02'0 0.0
2014-Jul-19 12:31N 43°21' W 003°02'0 0.0
2014-Jul-19 11:28N 43°21' W 003°02'0 0.0
2014-Jul-19 10:31N 43°21' W 003°02'0 0.0
2014-Jul-19 09:31N 43°21' W 003°02'0 0.0
2014-Jul-19 08:31N 43°21' W 003°02'0 0.0
2014-Jul-19 07:31N 43°21' W 003°02'0 0.0
2014-Jul-19 06:31N 43°21' W 003°02'0 0.0
2014-Jul-19 05:31N 43°21' W 003°02'0 0.0
2014-Jul-19 04:31N 43°21' W 003°02'0 0.0
2014-Jul-19 03:31N 43°21' W 003°02'0 0.0
2014-Jul-19 02:31N 43°21' W 003°02'0 0.0
2014-Jul-19 01:31N 43°21' W 003°02'0 0.0
2014-Jul-19 00:31N 43°21' W 003°02'0 0.0
2014-Jul-18 23:31N 43°21' W 003°02'0 0.0
2014-Jul-18 22:31N 43°21' W 003°02'0 0.0
2014-Jul-18 21:31N 43°21' W 003°02'0 0.0
2014-Jul-18 20:31N 43°21' W 003°02'0 0.0
2014-Jul-18 19:28N 43°21' W 003°02'0 0.0
2014-Jul-18 18:31N 43°21' W 003°02'0 0.0
2014-Jul-18 17:31N 43°21' W 003°02'0 0.0
2014-Jul-18 16:31N 43°21' W 003°02'0 0.0
2014-Jul-18 15:31N 43°21' W 003°02'0 0.0
2014-Jul-18 14:31N 43°21' W 003°02'0 0.0
2014-Jul-18 13:31N 43°21' W 003°02'0 0.0
2014-Jul-18 12:31N 43°21' W 003°02'0 0.0
2014-Jul-18 11:31N 43°21' W 003°02'0 0.0
2014-Jul-18 10:31N 43°21' W 003°02'0 0.0
2014-Jul-18 09:31N 43°21' W 003°02'0 0.0
2014-Jul-18 08:28N 43°21' W 003°02'0 0.0
2014-Jul-18 07:31N 43°21' W 003°02'0 0.0
2014-Jul-18 06:31N 43°21' W 003°02'0 0.0
2014-Jul-18 05:31N 43°21' W 003°02'0 0.0
2014-Jul-18 04:31N 43°21' W 003°02'0 0.0
2014-Jul-18 03:31N 43°21' W 003°02'0 0.0
2014-Jul-18 02:31N 43°21' W 003°02'0 0.0
2014-Jul-18 01:31N 43°21' W 003°02'0 0.0
2014-Jul-18 00:31N 43°21' W 003°02'0 0.0
2014-Jul-17 23:31N 43°21' W 003°02'0 0.0
2014-Jul-17 22:31N 43°21' W 003°02'0 0.0
2014-Jul-17 21:31N 43°21' W 003°02'0 0.0
2014-Jul-17 20:31N 43°21' W 003°02'0 0.0
2014-Jul-17 19:31N 43°21' W 003°02'0 0.0
2014-Jul-17 18:28N 43°21' W 003°02'0 0.0
2014-Jul-17 17:28N 43°21' W 003°02'0 0.0
2014-Jul-17 16:31N 43°21' W 003°02'0 0.0
2014-Jul-17 15:31N 43°21' W 003°02'0 0.0
2014-Jul-17 14:31N 43°21' W 003°02'0 0.0
2014-Jul-17 13:31N 43°21' W 003°02'0 0.0
2014-Jul-17 12:31N 43°21' W 003°02'0 0.0
2014-Jul-17 11:31N 43°21' W 003°02'0 0.0
2014-Jul-17 10:31N 43°21' W 003°02'0 0.0
2014-Jul-17 09:31N 43°21' W 003°02'0 0.0
2014-Jul-17 08:31N 43°21' W 003°02'0 0.0
2014-Jul-17 07:28N 43°21' W 003°02'0 0.0
2014-Jul-17 06:31N 43°21' W 003°02'0 0.0
2014-Jul-17 05:31N 43°21' W 003°02'0 0.0
2014-Jul-17 04:31N 43°21' W 003°02'0 0.0
2014-Jul-17 03:31N 43°21' W 003°02'0 0.0
2014-Jul-17 02:28N 43°21' W 003°02'0 0.0
2014-Jul-17 01:31N 43°21' W 003°02'0 0.0
2014-Jul-17 00:31N 43°21' W 003°02'0 0.0
2014-Jul-16 23:31N 43°21' W 003°02'0 0.0
2014-Jul-16 22:28N 43°21' W 003°02'0 0.0
2014-Jul-16 21:31N 43°21' W 003°02'2 2.4
2014-Jul-16 20:33N 43°22' W 003°04'8 7.7
2014-Jul-16 19:33N 43°29' W 003°09'1010.0
2014-Jul-16 18:33N 43°39' W 003°13'9 8.7
2014-Jul-16 17:33N 43°47' W 003°18'8 8.1
2014-Jul-16 16:33N 43°54' W 003°22'  
Track history (hours):
 
Tides and Currents Weather Stations Pressure Air Temp Water Temp Dewpoint Dewpoint Depression Visibility Wind Speed Wind Dir Waves Ship Positions

MV Moseldijk

Last reported at 2014-Jul-24 19:33 UTC. Time now 2014-Jul-24 20:06 UTC.
Position N 50°00' W 001°49'.

Length 90 m; draft 6.5 m.

Type: Cargo ship. MMSI: 246644000.

Date/timePositionNaut miles runAvg speedWind from/ knotsBaromVisibWave heightAir tempDewpointWater temp
2014-Jul-24 19:33N 50°00' W 001°49'1413.7
2014-Jul-24 18:33N 49°57' W 002°10'191 9.4
2014-Jul-23 22:11N 47°46' W 005°43'610.5
2014-Jul-23 21:34N 47°40' W 005°42'1010.3
2014-Jul-23 20:33N 47°30' W 005°43'4110.3
2014-Jul-23 16:34N 46°49' W 005°42'18410.2
2014-Jul-22 22:31N 43°44' W 005°40'1010.0
2014-Jul-22 21:33N 43°34' W 005°40'1 0.1
2014-Jul-22 01:33N 43°34' W 005°42'0 0.0
2014-Jul-21 23:27N 43°34' W 005°42'0 0.0
2014-Jul-21 13:33N 43°34' W 005°42'0 0.0
2014-Jul-21 07:30N 43°34' W 005°42'0 0.0
2014-Jul-21 06:26N 43°34' W 005°42'0 0.0
2014-Jul-21 05:33N 43°34' W 005°42'0 0.0
2014-Jul-20 23:22N 43°34' W 005°42'7 8.3
2014-Jul-20 22:33N 43°36' W 005°33'110 3.4
2014-Jul-19 14:31N 43°21' W 003°02'0 0.0
2014-Jul-19 13:31N 43°21' W 003°02'0 0.0
2014-Jul-19 12:31N 43°21' W 003°02'0 0.0
2014-Jul-19 11:28N 43°21' W 003°02'0 0.0
2014-Jul-19 10:31N 43°21' W 003°02'0 0.0
2014-Jul-19 09:31N 43°21' W 003°02'0 0.0
2014-Jul-19 08:31N 43°21' W 003°02'0 0.0
2014-Jul-19 07:31N 43°21' W 003°02'0 0.0
2014-Jul-19 06:31N 43°21' W 003°02'0 0.0
2014-Jul-19 05:31N 43°21' W 003°02'0 0.0
2014-Jul-19 04:31N 43°21' W 003°02'0 0.0
2014-Jul-19 03:31N 43°21' W 003°02'0 0.0
2014-Jul-19 02:31N 43°21' W 003°02'0 0.0
2014-Jul-19 01:31N 43°21' W 003°02'0 0.0
2014-Jul-19 00:31N 43°21' W 003°02'0 0.0
2014-Jul-18 23:31N 43°21' W 003°02'0 0.0
2014-Jul-18 22:31N 43°21' W 003°02'0 0.0
2014-Jul-18 21:31N 43°21' W 003°02'0 0.0
2014-Jul-18 20:31N 43°21' W 003°02'0 0.0
2014-Jul-18 19:28N 43°21' W 003°02'0 0.0
2014-Jul-18 18:31N 43°21' W 003°02'0 0.0
2014-Jul-18 17:31N 43°21' W 003°02'0 0.0
2014-Jul-18 16:31N 43°21' W 003°02'0 0.0
2014-Jul-18 15:31N 43°21' W 003°02'0 0.0
2014-Jul-18 14:31N 43°21' W 003°02'0 0.0
2014-Jul-18 13:31N 43°21' W 003°02'0 0.0
2014-Jul-18 12:31N 43°21' W 003°02'0 0.0
2014-Jul-18 11:31N 43°21' W 003°02'0 0.0
2014-Jul-18 10:31N 43°21' W 003°02'0 0.0
2014-Jul-18 09:31N 43°21' W 003°02'0 0.0
2014-Jul-18 08:28N 43°21' W 003°02'0 0.0
2014-Jul-18 07:31N 43°21' W 003°02'0 0.0
2014-Jul-18 06:31N 43°21' W 003°02'0 0.0
2014-Jul-18 05:31N 43°21' W 003°02'0 0.0
2014-Jul-18 04:31N 43°21' W 003°02'0 0.0
2014-Jul-18 03:31N 43°21' W 003°02'0 0.0
2014-Jul-18 02:31N 43°21' W 003°02'0 0.0
2014-Jul-18 01:31N 43°21' W 003°02'0 0.0
2014-Jul-18 00:31N 43°21' W 003°02'0 0.0
2014-Jul-17 23:31N 43°21' W 003°02'0 0.0
2014-Jul-17 22:31N 43°21' W 003°02'0 0.0
2014-Jul-17 21:31N 43°21' W 003°02'0 0.0
2014-Jul-17 20:31N 43°21' W 003°02'0 0.0
2014-Jul-17 19:31N 43°21' W 003°02'0 0.0
2014-Jul-17 18:28N 43°21' W 003°02'0 0.0
2014-Jul-17 17:28N 43°21' W 003°02'0 0.0
2014-Jul-17 16:31N 43°21' W 003°02'0 0.0
2014-Jul-17 15:31N 43°21' W 003°02'0 0.0
2014-Jul-17 14:31N 43°21' W 003°02'0 0.0
2014-Jul-17 13:31N 43°21' W 003°02'0 0.0
2014-Jul-17 12:31N 43°21' W 003°02'0 0.0
2014-Jul-17 11:31N 43°21' W 003°02'0 0.0
2014-Jul-17 10:31N 43°21' W 003°02'0 0.0
2014-Jul-17 09:31N 43°21' W 003°02'0 0.0
2014-Jul-17 08:31N 43°21' W 003°02'0 0.0
2014-Jul-17 07:28N 43°21' W 003°02'0 0.0
2014-Jul-17 06:31N 43°21' W 003°02'0 0.0
2014-Jul-17 05:31N 43°21' W 003°02'0 0.0
2014-Jul-17 04:31N 43°21' W 003°02'0 0.0
2014-Jul-17 03:31N 43°21' W 003°02'0 0.0
2014-Jul-17 02:28N 43°21' W 003°02'0 0.0
2014-Jul-17 01:31N 43°21' W 003°02'0 0.0
2014-Jul-17 00:31N 43°21' W 003°02'0 0.0
2014-Jul-16 23:31N 43°21' W 003°02'0 0.0
2014-Jul-16 22:28N 43°21' W 003°02'0 0.0
2014-Jul-16 21:31N 43°21' W 003°02'2 2.4
2014-Jul-16 20:33N 43°22' W 003°04'8 7.7
2014-Jul-16 19:33N 43°29' W 003°09'1010.0
2014-Jul-16 18:33N 43°39' W 003°13'9 8.7
2014-Jul-16 17:33N 43°47' W 003°18'8 8.1
2014-Jul-16 16:33N 43°54' W 003°22'  

Dump ship's entire track history